Timeline UpdatesTrip UpdatesNews PostsPvt Posts♥♥Travel TipsAdmin PostsConv PostsFollowed PostsChat RequestsBlog PostsPNR Posts

Disclaimer
Search
 
 
Fri Oct 31, 2014 22:47:19 ISTHomeTrainsΣChainsAtlasPNRForumGalleryNewsFAQTripsMembersLoginFeedback
No Recent News for this Train
Other Trains in the News **new
Latest...
Temporary Stop at Vindhyachal (BDL) for 2 minutes from 25/9/14-6/10/14 #1223333.
Wed Sep 24, 2014 (11:33PM)
⇐ Return Journey: Train# 15647

15648/Guwahati-Mumbai LTT Weekly Express

Time-Table HAS CHANGED.
Sep 24 2014 (11:33PM)
Change Departure Station:
Change Arrival Station:
Post a Train Travel TipPost a Train Travel Tip **new
Post a Comment/Question/Picture/VideoPost a Comment/Question/Picture/Video
Pantry/Catering
✓ Pantry Car Avbl
✓ Catering Avbl
RSA - Rake Sharing
Rake/Coach Composition
2A-1, 3A-3, PC-1, SL-12, GEN-3, SLR-2= 22 coach
Loco
GHY-ET ET WDMx
News    PNR    Forum    Time-Table    Availability    Fare Chart    Map    Arr/Dep History    Trips    Gallery    ΣChains    X/O    Timeline    
Travel Time: 46h 25m    46 halts    Distance: 2397 km    Avg Speed: 51 km/hr
Type: Mail/Express
Zone: NFR/Northeast Frontier
Departs @ 21:35 (Avg 2h 31m late)
Platform# ???
  T    
Dhupguri/DQG 
Arrives @ 20:00 +2 nights (Avg 1h 47m late)
Platform# 5
    T  
Mumbai Lokmanya Tilak Terminus/LTT 

46 halts. 390 intermediate Stations between Dhupguri and Mumbai Lokmanya Tilak Terminus

Show ALL intermediate Stations  Show Old Time-Table

#TrkCodeStation NameX/OArrivesAvgDepartsAvgHaltPFDay#KmSpeedElevZoneAddress
1|==|GHYGuwahati (7)  -15:00+44--1-342.12660mNFRGuwahati, Assam
2|-=|KYQKamakhya Junction (4)  15:16+5715:17+1:021m--1-335.15755mNFRDist - KAMRUP, Assam
3|--|RNYRangiya Junction (5)  16:15 16:00+1:3616:25 16:10+1:4010m--1-294.54158mNFRRangia, Assam
4|--|BPRDBarpeta Road  17:49 17:44+1:3717:50 17:45+1:411m--1-229.65949mNFRHowli, Assam
5|-=|NBQNew Bongaigaon Junction (4)  18:30+1:2418:40+1:2210m--1-185.57158mNFR783381., Assam
6!==!NOQNew Alipurduar (2)  20:05 20:10+2:0020:10 20:15+2:005m--1-78.84548mNFRDist - Alipurduar - 736121, West Bengal
7!==!NCBNew Cooch Behar Junction (5)X  20:40+1:5620:45+1:595m--1-60.28047mNFRDist : Cooch Behar-736101, West Bengal
8|--|DQGDhupguri (2)»  21:30+2:3121:35+2:315m--10.03675mNFRDist - Jalpaiguri, West Bengal
9%==|NJPNew Jalpaiguri Junction (8)  23:25+1:3223:40+1:3415m--165.375114mNFRCity-Siliguri . Dist-Jalpaiguri, West Bengal
10%==%KNEKishanGanj (3)X  00:50+2:1700:55+2:175m--2152.74952mNFRKishanganj, Bihar
11%==%MLDTMalda Town (5)X  03:55+1:2704:10+1:2815m--2300.86630mERDist - Malda, West Bengal
12%==%NFKNew Farakka Junction (3)X  04:42+2:0904:44+2:092m12335.92632mERDist - Murshidabad, West Bengal
13|==|BHWBarharwa Junction (3)X  05:26+1:5405:30+1:534m12353.95036mERBarharwa, Jharkhand
14!==!SBGSahibganj Junction (3)  06:35+1:5906:43+2:008m22408.37138mERSahibganj, Jharkhand
15!==!CLGKahalgaon (2)  07:20+2:1007:21+2:121m22452.24644mERBhagalpur, Bihar
16!==|BGPBhagalpur Junction (6)  08:00+2:1308:15+2:0615m--2482.37549mERBhagalpur, Bihar
17|==|SGGSultanGanj (3)  08:35+2:1208:36+2:131m--2507.35142mERSultanganj, Bihar
18|==|BUPBariarpur (3)  08:57+2:1008:58+2:111m--2525.21342mERMunger, Bihar
19|-=|JMPJamalpur Junction (4)X  09:48+1:4210:03+1:4615m--2536.36959mERDist: Munger 06344-243101, Bihar
20|==|AHAAbhaipur (3)X  10:22+2:1910:23+2:201m--2558.23352mERAbhaipur, Bihar
21!=-|KIULKiul Junction (5)X  11:05+2:1211:10+2:165m--2581.21253mECRDist. Lakhisarai, Bihar
22/==/LKRLuckeesarai Junction (2)X  11:17+2:1511:18+2:161m242582.56552mECRLakhisarai, Bihar
23/==/BRYABarhiya (3)  11:32+1:5111:33+1:511m--2597.65647mECRBarahiya, Bihar
24/==/HTZHathidah Junction (2)  11:43+2:2011:44+2:211m22607.04650mECRMusahari, Bihar
25/==/MKAMokama Junction (4)  11:55+2:2211:57+2:222m--2615.45148mECRPatna, Bihar
26/==/BARHBarh (3)  12:27+2:1612:28+2:191m--2641.14549mECRBarh, Bihar
27/==/BKPBakhtiyarpur Junction (5)  12:52+2:1612:54+2:222m--2659.25951mECRPatna, Bihar
28/==/KOOKhusropur (2)X  13:09+2:2413:10+2:291m--2674.05652mECRPatna, Bihar
29/==/FUTFatwa (6)XO  13:19+2:3313:20+2:341m--2682.57353mECRPatna, Bihar
30/==/PNCPatna Saheb (3)X  13:30+2:0913:31+2:101m--2694.73159mECRPatna 800008, Bihar
31/==/PNBEPatna Junction (10)  13:50+1:4314:00+1:4410m--2704.63857mECRPatna 800001, Bihar
32/==/DNRDanapur (5)X  14:15+2:2414:25+2:2410m--2714.07758mECRKhagaul, Bihar
33/==/ARAAra Junction (3)  14:54 14:56+2:2714:59 15:01+2:265m--2753.510863mECRDistt: Bhojpur Ph 06182-233411, Bihar
34/==/DUREDumraon (3)  15:30+3:3215:31+3:331m--2805.7-70mECRDumraon, Bihar
35/==/BXRBuxar (3)X  15:56 15:32+2:2116:00 15:33+2:224 1m--2822.04067mECRBuxar, Bihar
36/==/DLNDildarnagar Junction (2)  16:28+3:3916:30+3:392m--2858.24972mECRDildarnagar, Uttar Pradesh
37/==/MGSMughal Sarai Junction (8)  17:40+2:1917:55+2:2015m--2916.06483mECRDistt: Chandauli Pin 232101, Uttar Pradesh
38/==/MZPMirzapur (3)X  18:54+3:1718:55+3:211m--2979.16188mNCRMirzapur, Uttar Pradesh
39/==/COIChheoki Junction (3)  20:14+2:5820:15+3:011m--21059.66296mNCRDist.-Allahabad, Uttar Pradesh
40%==%STASatna Junction (3)X  23:00+3:4923:10+3:4910m121229.579322mWCRSatna, Madhya Pradesh
41|==%KTEKatni Junction (6)X  00:25+5:2900:30+5:325m--31327.968387mWCRKatni, Madhya Pradesh
42|==|JBPJabalpur Junction (4)X  01:50+2:4802:00+2:2810m131418.855416mWCRJabalpur, Madhya Pradesh
43|==|PPIPipariya (3)X  05:13+4:4505:15+4:462m--31596.535338mWCRPiparia, Madhya Pradesh
44|==|ETItarsi Junction (7)X07:10+2:2407:20+2:2610m--31663.789329mWCRItarsi 461111, Madhya Pradesh
45/==/HDHarda (3)  08:11+4:4008:12+4:411m--31739.560289mWCRHarda, Madhya Pradesh
46/==/KNWKhandwa Junction (5)X  10:00+2:5310:05+2:535m--31847.277310mCRKhandwa, Madhya Pradesh
47/==/BAUBurhanpur (2)  10:59+4:1711:00+4:191m131916.073269mCRBurhanpur, Madhya Pradesh
48/==/BSLBhusaval Junction (8)XO  11:50 11:45+2:2212:00 11:55+2:2010m--31970.587208mCRBhusaval 425201, Maharashtra
49/==/MMRManmad Junction (6)  14:05 14:02+2:2314:10 14:05+2:225 3m332154.755580mCRManmad 423104, Maharashtra
50/==/NKNasik Road (3)X  15:24+2:3515:25+2:351m332227.538563mCRNashik 422101, Maharashtra
51/==/DVLDevlali (3)X  15:34-15:35-1m232233.230561mCRDist. Nashik 422401, Maharashtra
52/==/IGPIgatpuri (4)X17:04-17:05-1m--32278.147589mCRIgatpuri 422403, Maharashtra
53/==/KYNKalyan Junction (8)X  19:00 18:50+1:0819:05 18:54+1:085 4m632359.94910mCRKalyan 421301, Maharashtra
54/==/TNAThane (10)X  19:24 19:19+3719:25 19:20+371m832380.12510mCRThane (West) 400602, Maharashtra
55/==/LTTMumbai Lokmanya Tilak Terminus (5)•  20:00+1:47-532396.6-7mCRMumbai - 400089, Maharashtra
Scroll to Top
Scroll to Bottom